Regional Weather Roundup
Issued by NWS Wakefield, VA

Home | Current Version | Previous Version | Graphics & Text | Print | Product List | Glossary On
Versions: 1 2 3 4 5 6 7 8 9 10 11 12 13 14 15 16 17 18 19 20 21 22 23 24 25 26 27 28 29 30 31 32 33 34 35 36 37 38 39 40 41 42 43 44 45 46 47 48 49 50
000
ASUS41 KAKQ 181614
RWRAKQ

REGIONAL WEATHER ROUNDUP
NATIONAL WEATHER SERVICE WAKEFIELD VA
1200 PM EDT SAT APR 18 2015

Note: "fair" indicates few or no clouds below 12,000 feet with no
significant weather and/or obstructions to visibility. * = Denotes
station may not report precipitation (e.g., rain,snow,etc.),
thunder or fog.

VAZ042-051-052>054-056-181700-
NORTHERN VIRGINIA

CITY           SKY/WX    TMP DP  RH WIND       PRES   REMARKS
WASH NATIONAL  MOSUNNY   77  52  41 N6        30.03S
DULLES         MOSUNNY   74  49  41 VRB7      30.04S
FORT BELVOIR   SUNNY     75  51  42 VRB1      30.03S
QUANTICO       SUNNY     72  52  49 E8        30.04S
FREDERICKSBRG* SUNNY     76  49  37 NE7       30.02S
STAFFORD*      SUNNY     76  45  33 NW8       30.06F
WARRENTON      SUNNY     76  50  40 N6        30.04S
CULPEPER*      SUNNY     75  52  43 CALM      30.04S
MANASSAS*      SUNNY     75  48  38 NE6       30.04S
LEESBURG*      SUNNY     73  52  46 N6        30.05S
WINCHESTER     SUNNY     73  34  23 N5        30.05F
FRONT ROYAL*   FAIR      70  50  49 CALM      30.05S
LURAY*         FAIR      75  52  43 NE3       30.05F
$$

VAZ048-049-060>072-079>083-181700-
CENTRAL AND SOUTH CENTRAL VIRGINIA

CITY           SKY/WX    TMP DP  RH WIND       PRES   REMARKS
RICHMOND       MOSUNNY   76  53  44 N7        30.02F
CHESTERFIELD*  NOT AVBL
PETERSBURG*    MOSUNNY   77  51  40 NE7       30.03S
HANOVER        SUNNY     76  51  41 VRB3      30.04S
TAPPAHANNOCK*  SUNNY     75  44  33 NE3       30.03F
QUINTON*       FAIR      75  54  47 N5        30.02F
CHARLOTTSVILLE SUNNY     74  54  49 VRB3      30.03F
GORDONSVILLE*  FAIR      74  47  38 NE8       30.03F
ORANGE*        SUNNY     73  52  46 NW5       30.06S
LOUISA*        SUNNY     75  52  43 NE6       30.03S
BUMPASS*       FAIR      73  49  41 NW6       30.03F
FARMVILLE*     SUNNY     77  56  48 CALM      30.02F
CREWE*         FAIR      75  52  44 N7        30.02F
FORT PICKETT*  CLOUDY    76  54  46 NE3       30.02F
CHASE CITY*    CLOUDY    77  60  55 NE7       30.03S
CLARKSVILLE*   PTSUNNY   75  59  57 E6        30.02S
SOUTH HILL*    CLOUDY    75  58  56 N6        30.07F
LAWRENCEVILLE* PTSUNNY   75  58  55 NE6       30.02S
EMPORIA*         N/A     75  59  57 NE5       30.02F
$$

VAZ088>098-181700-
SOUTHEAST VIRGINIA

CITY           SKY/WX    TMP DP  RH WIND       PRES   REMARKS
NORFOLK        MOSUNNY   68  58  70 N12       30.01S
VIRGINIA BEACH MOSUNNY   76  62  62 NE12      30.00S
NORFOLK NAVAL  PTSUNNY   71  60  68 N13       30.03S
WEST POINT*    MOSUNNY   80  48  32 E7        30.03F
SALUDA*        FAIR      72  54  52 CALM      30.02S
NEWPORT NEWS   MOSUNNY   76  60  57 NE8       30.01F
LANGLEY AFB    MOSUNNY   71  59  65 N13       30.00F
FORT EUSTIS    MOSUNNY   75  57  53 NE7       29.99F HAZE
WILLIAMSBURG*  MOSUNNY   82  61  47 NE3       30.02F
HR EXEC AP*    FAIR      77  63  61 NE13      30.01F
FRANKLIN*      MOSUNNY  N/A N/A N/A NE8       30.01S
WAKEFIELD      SUNNY     78  55  44 N10       30.01F
$$

VAZ020-022-025-037-045-181700-
WEST CENTRAL AND SOUTHWEST VIRGINIA

CITY           SKY/WX    TMP DP  RH WIND       PRES   REMARKS
STAUNTON*      SUNNY     71  54  54 NE3       30.08S
WAYNESBORO*    FAIR      69  52  54 N5        30.07S
HOT SPRINGS VA MOSUNNY   63  46  54 CALM      30.11F
LYNCHBURG      SUNNY     74  53  48 NE5       30.05F
DANVILLE       MOSUNNY   77  58  51 NE10      30.02F
SOUTH BOSTON*  FAIR      77  57  50 E6        30.03S
MARTINSVILLE   SUNNY     77  56  49 NE7       30.05F
ROANOKE        SUNNY     73  54  51 N5        30.06F
BLACKSBURG     SUNNY     70  52  52 NE7       30.09F
DUBLIN*        SUNNY     73  55  52 E5        30.07F
MARION*        MOSUNNY   72  52  50 SE6       30.10F
HILLSVILLE*    MOSUNNY   68  53  57 NE3       30.08F
RICHLANDS*     FAIR      71  48  44 S3        30.08S
WISE*          PTSUNNY   70  46  43 SE3       30.09F
ABINGDON*      PTSUNNY   74  53  47 E6        30.06F
$$

MDZ021>025-VAZ099-100-181700-
SOUTHERN MARYLAND AND THE DELMARVA PENINSULA

CITY           SKY/WX    TMP DP  RH WIND       PRES   REMARKS
PATUXENT RIVER MOSUNNY   72  54  53 NE5       30.02S
BAY BRIDGE APT   N/A     64  54  68 NW8       30.04S
LEONARDTOWN      N/A     72  48  43 N5        30.04S VSB 1/2
DOVER          SUNNY     72  49  44 NE3       29.99F
GEORGETOWN     SUNNY     70  48  45 E10G21    30.03S
EASTON         MOSUNNY   73  55  53 NE10      30.06S
CAMBRIDGE      SUNNY     72  55  56 N6        30.01F
SALISBURY      PTSUNNY   73  59  61 NE10      30.00F
OCEAN CITY     SUNNY     66  48  52 NE7       30.03R
WALLOPS ISLAND SUNNY     70  62  76 E14       30.01S
ACCOMACK*      MOSUNNY   73  59  60 NW5       30.01S
$$

NCZ012>017-030>032-181700-
NORTH CENTRAL AND EASTERN NORTH CAROLINA

CITY           SKY/WX    TMP DP  RH WIND       PRES   REMARKS
ROANOKE RAPIDS FAIR      77  63  61 NE7       30.01S
RALEIGH        PTSUNNY   75  61  61 E6        30.02S
ELIZABETH CITY MOSUNNY   79  64  60 CALM      29.99S
AHOSKIE*       SUNNY     76  63  64 NE3       30.00S
EDENTON*       MOSUNNY   74  65  74 SW3       29.99F
CURRITUCK*     MOSUNNY   75  61  61 NE7       30.00S
KILL DEVIL HLS MOSUNNY   73  64  73 NE7       29.99S
MANTEO         MOSUNNY   75  64  69 N6        30.00S
CAPE HATTERAS  CLOUDY    70  63  78 VRB5      30.00S
TARBORO*       FAIR      77  64  64 CALM      30.02R
GOLDSBORO      LGT RAIN  77  65  66 CALM      29.99S
WASHINGTON     PTSUNNY   75  64  70 CALM      30.01R
GREENVILLE     PTSUNNY   73  63  68 CALM      30.02S
NEW BERN       CLOUDY    75  64  68 CALM      30.01S
WILMINGTON     LGT RAIN  70  66  87 SE6       30.02R
$$

VAZ048-181700-
ELSEWHERE

CITY           SKY/WX    TMP DP  RH WIND       PRES   REMARKS
HARRISBURG PA  PTSUNNY   70  46  42 CALM      30.00F
BALTIMORE      MOSUNNY   71  47  42 VRB5      30.02F
ANNAPOLIS      SUNNY     69  50  50 E5        30.03S
ANDREWS AFB    MOSUNNY   72  51  47 N6        30.02S
PHILADELPHIA   PTSUNNY   72  46  39 SW7       30.00F
HENDERSON NC   MOSUNNY   76  59  57 E8        30.02S
GREENSBORO     MOSUNNY   75  61  60 NE7       30.02S
ROCKY MOUNT    MOSUNNY   73  64  73 CALM      30.02R
$$

VAZ100-181700-
MARINE

STATION/POSITION TIME  TEMP    WIND        PRES    WAVE   SWELL
                       AIR SEA DIR/SP/G            HT/PER HT/PER
                 (UTC) (F)     (DEG/KT/KT) (MB)    (FT/S) (FT/S)
CAPE MAY NJ      1500      53  280/  5/  7 1016.5R
LEWES DE         1500   56 50  350/  3/  4 1016.9R
15NM E FENWICK I 1550   51 49              1016.5R   3/ 8
OCEAN-CITY-INLET 1500   62 48   60/  4/  8 1016.4R
WACHAPREAGUE VA  1500   70 62   60/  7/  8 1016.2R
THOMAS POINT MD  1600   64 54  360/  6/  6 1017.6S
GOOSES REEF MD   1600   59 58   10/  6/  8   N/A
COVE POINT MD    1500   59     350/ 12/ 12 1016.7R
SOLOMONS ISLAND  1500      55                N/A
BISHOPS HEAD MD  1500   70 65   30/  7/  8 1016.0R
PINEY POINT MD   1500          230/  4/  4   N/A
CAMBRIDGE MD     1500   66 57   CALM  /  2 1016.4R
LEWISETTA VA     1500   68 59              1016.3F
RAPPAHANNOCK LGT 1500          340/  9/ 10 1017.0R
STINGRAY PT      1600   60 56   10/  6/  6 1018.9R   1
YORK RVR RNG VA  1500   63      20/  6/  7 1016.0R
YORKTOWN VA      1500   67 57   50/  7/  9 1016.2R
DOMINION TERM VA 1500   64     180/  2/  2 1016.4R
KIPTOPEKE VA     1500      60  320/  4/  6   N/A
CHES BAY BRIDGE  1500   58 54  340/  4/  6 1016.0R
CAPE HENRY VA    1500   60     310/  8/ 10 1015.1R
CHESAPEAKE LGHT  1500   60      10/ 11/ 11 1016.7R
WILLOUBY STN VA  1500   62      40/ 10/ 12 1017.0R
S CRANEY ISL VA  1500           10/  6/  7 1016.3R
CAPE HENRY BUOY  1528      56                N/A     3/ 7   2/12
1ST LANDING BUOY 1600   57     360/  6/  6 1016.0S   1/ 5
OFFSHORE WE BUOY 1511      50                N/A     3/ 7   3/ 7
64NM E OF VA BCH 1550   57 55  340/  6/  8 1015.7R   4/11   3/11
DUCK PIER NC     1500   64 54   10/  4/  4 1014.9R
44056 DUCK FRF   1511      57                N/A     3/ 8   2/11
OREGON INLET NC  1500   67 60   40/  3/  4 1015.7R
HATTERAS NC      1500   69 66  130/  3/  4 1015.5R
DIAMOND SHLS NC  1550   71 75   30/  6/  8 1015.9R   5/11   5/11
CAPE LOOKOUT NC  1600   69      20/  4/  5 1015.4F
$$



USA.gov is the U.S. government's official web portal to all federal, state and local government web resources and services.